#timestamp,LO_Frequency,Hit,StdDev 
1596918755.4,286047034.6,P
1596918775.2,286047034.1,P
1596918795.0,286047036.3,P
1596918796.0,286047036.3,Y
1596918815.8,286046999.8,P
1596918835.6,286046999.8,N
1596918855.5,286047002.0,N
1596918875.3,286047001.5,N
1596918895.1,286047001.6,N
1596918915.9,286047004.4,N
1596918935.7,286047001.3,N
1596918955.6,286047003.6,N
1596918975.4,286047003.7,N
1596918995.2,286047003.5,N
1596919015.1,286047002.9,N
1596919016.0,286047002.9,N
1596919035.8,286047003.0,N
1596919055.6,286047005.5,N
1596919075.5,286047005.5,N
1596919095.3,286047005.4,N
1596919115.2,286047005.7,N
1596919135.9,286047004.6,N
1596919155.7,286047007.1,N
1596919175.6,286047004.9,N
1596919195.4,286047004.5,N
1596919215.2,286047006.4,N
1596919235.1,286047006.2,N
1596919236.0,286047006.2,N
1596919255.8,286047006.5,N
1596919275.7,286047008.7,N
1596919295.5,286047009.1,N
1596919315.3,286047007.9,N
1596919335.2,286047008.0,N
1596919355.0,286047008.3,N
1596919355.9,286047008.3,Y
1596919375.8,286047005.7,P
1596919395.6,286047002.9,P
1596919415.4,286047005.5,P
1596919435.3,286047005.6,Y
1596919455.1,286046998.6,P
1596919475.9,286047001.0,N
1596919495.7,286047000.1,N
1596919515.5,286047002.8,N
1596919535.4,286047002.0,N
1596919555.2,286047001.7,N
1596919575.1,286047001.7,N
1596919576.0,286047001.7,N
1596919595.8,286047003.9,N
1596919615.6,286047003.2,N
1596919635.5,286047003.6,N
1596919655.3,286047005.3,Y
1596919675.1,286047004.2,P
1596919695.9,286047005.5,P
1596919715.7,286047003.4,N
1596919735.6,286047005.6,Y
1596919755.4,286047002.5,P
1596919775.2,286047002.2,P
1596919795.1,286047002.0,N
1596919796.0,286047002.0,N
1596919815.8,286047002.2,Y
1596919835.7,286047000.8,P
1596919855.5,286046999.7,N
1596919875.3,286046999.7,N
1596919895.2,286047002.8,N
1596919915.0,286047002.8,N
1596919915.9,286047002.8,N
1596919935.8,286047001.3,N
1596919955.6,286047004.3,Y
1596919975.4,286047002.4,P
1596919995.3,286047004.4,P
1596920015.1,286047002.0,N
1596920035.9,286047001.7,N
1596920055.7,286047001.5,N
1596920075.5,286047001.7,N
1596920095.4,286047004.2,Y
1596920115.2,286047000.2,P
1596920135.0,286047002.3,N
1596920136.0,286047002.3,N
1596920155.8,286047001.5,N
1596920175.6,286047002.0,N
1596920195.5,286047002.5,Y
1596920215.3,286047000.1,P
1596920235.1,286047002.7,P
1596920255.9,286047001.9,N
1596920275.7,286047002.1,N
1596920295.6,286047002.6,N
1596920315.4,286047001.3,N
1596920335.2,286047004.2,Y
1596920355.1,286047002.8,P
1596920356.0,286047002.8,P
1596920375.8,286047002.7,P
1596920395.7,286047001.9,Y
